星链-37861(STARLINK-37861)

导读

STARLINK-37861是美国太空探索技术公司(SpaceX)星链星座的成员卫星,北美防空司令部分配其NORAD唯一识别编号为69552,属于低轨通信卫星。该卫星运行于约550公里高度的近地轨道,轨道周期约94分钟,搭载星间激光通信链路,可与星座内其他卫星、地面终端协同,为全球偏远、通信覆盖薄弱区域提供低延迟高速宽带接入服务。 截至2026年6月,星链在轨活跃卫星超1万颗,整体健康率超99.9%,该卫星作为星座组网的组成部分,目前处于正常在轨运行状态,支持全球160余个国家和地区的星链通信服务。

基本信息
目录编号:
69552
目录名称:
STARLINK-37861
国际标识:
2026-135G
轨道中心:
EARTH
卫星名称:
星链-37861
卫星全名:
星链-37861(STARLINK-37861)
卫星状态:
在轨 (已飞行81 天)
发射日期:
2026-06-15 UTC
国别 :
美国 (US)
星等 :
--
轨道信息
数据来源 国际轨道数据
星历时间: 2026-09-02T20:36:07+0800
1天前
查看轨道信息
半长轴: 6843.667km
偏心率: 0.0000721
轨道倾角: 97.285°
近地点辐角 115.681°
升交点赤经 273.438°
平近点角 244.451°
近地点: 465.036km
远地点: 466.024km
周期: 93.906分钟
每日圈数: 15.334497
详细信息
固有亮度:
5
最大亮度:
2.5
卫星平台:
Starlink V1.0
覆盖范围:
全球
运营商:
太空探索技术公司
运营商所在国:
美国
制造商(研发单位):
太空探索技术公司
制造商所在国:
美国
使用方式:
暂无
卫星简介
Starlink 计划是 SpaceX 推出的全球卫星互联网项目,通过发射低轨道卫星,为全球尤其是偏远地区提供高速、低延迟的互联网服务。自 2019 年起,Starlink 已部署数千颗卫星,旨在缩小全球数字鸿沟,推动互联网普及。该项目还为军事、航空等行业提供通信支持,带来广泛经济效益。
2D轨道图
3D轨道图
轨道高度分析图
轨道倾角分析图
轨道综合分析图
查看轨道综合分析图